Weather History for Galliano, LA

Change the Weather History Date:

Sunday, October 6, 2013

  Actual Average (KAXO) Record (KAXO)
Temperature  
Mean Temperature 78 °F -  
Max Temperature 88 °F 76 °F 86 °F (2008)
Min Temperature 67 °F 73 °F 71 °F (1999)
Cooling Degree Days 13    
Growing Degree Days 28 (Base 50)    
Moisture  
Dew Point 73 °F    
Average Humidity 85    
Maximum Humidity 100    
Minimum Humidity 62    
Precipitation  
Precipitation 0.10 in - - ()
Sea Level Pressure  
Sea Level Pressure 29.86 in    
Wind  
Wind Speed 7 mph (NW)    
Max Wind Speed 17 mph    
Max Gust Speed 22 mph    
Visibility 10 miles    
Events Rain , Thunderstorm    
Averages and records for this station are not official NWS values.
T = Trace of Precipitation, MM = Missing Value Source: NWS Daily Summary

Daily Weather History Graph

Daily Weather History Graph

Search for Another Location

Airport:

Trip Planner

Search our weather history database for the weather conditions in past years. The results will help you decide how hot, cold, wet, or windy it might be!

Date:

Astronomy

Oct. 06, 2013 Rise Set
Actual Time 6:57 AM CDT 6:40 PM CDT
Civil Twilight 6:33 AM CDT 7:04 PM CDT
Nautical Twilight 6:05 AM CDT 7:31 PM CDT
Astronomical Twilight 5:38 AM CDT 7:59 PM CDT
Moon 8:31 AM CDT (10/6) 7:51 PM CDT (10/6)
Length of Visible Light 12h 30m
Length of Day
11h 43m
Waxing Crescent, 3% of the Moon is Illuminated
Oct 6
Waxing Crescent
Oct 11
First Quarter
Oct 18
Full
Oct 26
Last Quarter
Nov 3
New

Hourly Weather History & Observations

Time (CDT) Temp. Heat Index Dew Point Humidity Pressure Visibility Wind Dir Wind Speed Gust Speed Precip Events Conditions
12:15 AM 78.8 °F - 77.4 °F 95% 29.89 in 10.0 mi ESE 5.8 mph - N/A   Overcast
12:35 AM 78.8 °F - 77.0 °F 94% 29.88 in 10.0 mi ESE 9.2 mph - N/A   Scattered Clouds
12:55 AM 78.4 °F - 76.1 °F 92% 29.88 in 10.0 mi ESE 5.8 mph - N/A   Clear
1:15 AM 78.1 °F - 76.3 °F 94% 29.88 in 10.0 mi Calm Calm - N/A   Scattered Clouds
1:35 AM 77.9 °F - 76.6 °F 96% 29.88 in 10.0 mi SE 4.6 mph - N/A   Mostly Cloudy
1:55 AM 78.8 °F - 77.0 °F 94% 29.88 in 10.0 mi SE 4.6 mph - N/A   Mostly Cloudy
2:15 AM 78.3 °F - 76.6 °F 95% 29.87 in 10.0 mi SE 3.5 mph - N/A   Mostly Cloudy
2:35 AM 77.9 °F - 77.0 °F 97% 29.86 in 10.0 mi SE 3.5 mph - N/A   Scattered Clouds
2:55 AM 77.4 °F - 77.0 °F 99% 29.86 in 10.0 mi Calm Calm - N/A   Scattered Clouds
3:15 AM 77.0 °F - 76.6 °F 99% 29.84 in 10.0 mi ESE 3.5 mph - N/A   Clear
3:35 AM 76.5 °F - 76.5 °F 100% 29.84 in 10.0 mi East 3.5 mph - N/A   Clear
3:55 AM 76.1 °F - 76.1 °F 100% 29.84 in 10.0 mi East 3.5 mph - N/A   Clear
4:15 AM 76.1 °F - 76.1 °F 100% 29.83 in 10.0 mi East 3.5 mph - N/A   Scattered Clouds
4:35 AM 76.1 °F - 76.1 °F 100% 29.84 in 10.0 mi Calm Calm - N/A   Scattered Clouds
4:55 AM 75.6 °F - 75.6 °F 100% 29.84 in 10.0 mi Calm Calm - N/A   Scattered Clouds
5:15 AM 75.2 °F - 75.2 °F 100% 29.84 in 10.0 mi North 4.6 mph - N/A   Scattered Clouds
5:35 AM 73.9 °F - 73.9 °F 100% 29.84 in 10.0 mi Calm Calm - N/A   Clear
5:55 AM 73.9 °F - 73.9 °F 100% 29.84 in 10.0 mi North 3.5 mph - N/A   Scattered Clouds
6:15 AM 73.8 °F - 73.8 °F 100% 29.84 in 10.0 mi NNE 3.5 mph - N/A Thunderstorm Mostly Cloudy
6:35 AM 74.5 °F - 74.5 °F 100% 29.84 in 10.0 mi North 4.6 mph - N/A   Scattered Clouds
6:55 AM 73.8 °F - 73.8 °F 100% 29.84 in 10.0 mi NW 3.5 mph - N/A Thunderstorm Mostly Cloudy
7:15 AM 74.7 °F - 74.7 °F 100% 29.85 in 1.2 mi ESE 8.1 mph - 0.06 in Rain Rain
7:35 AM 75.7 °F - 75.7 °F 100% 29.85 in 10.0 mi SE 5.8 mph - 0.07 in Rain Light Rain
7:55 AM 75.4 °F - 75.4 °F 100% 29.85 in 10.0 mi East 3.5 mph - 0.07 in   Overcast
8:15 AM 75.4 °F - 75.4 °F 100% 29.86 in 10.0 mi Calm Calm - N/A   Overcast
8:35 AM 75.7 °F - 75.7 °F 100% 29.86 in 10.0 mi Calm Calm - N/A   Mostly Cloudy
8:55 AM 76.1 °F - 76.1 °F 100% 29.86 in 10.0 mi Calm Calm - N/A   Mostly Cloudy
9:15 AM 77.0 °F - 77.0 °F 100% 29.86 in 10.0 mi North 3.5 mph - N/A   Scattered Clouds
9:35 AM 80.8 °F 89.5 °F 80.1 °F 98% 29.86 in 10.0 mi NNW 5.8 mph - N/A   Clear
9:55 AM 82.6 °F 94.3 °F 80.4 °F 93% 29.86 in 10.0 mi NW 4.6 mph - N/A   Clear
10:15 AM 83.7 °F 97.7 °F 81.1 °F 92% 29.87 in 10.0 mi NNE 6.9 mph - N/A   Mostly Cloudy
10:35 AM 84.7 °F 98.7 °F 80.1 °F 86% 29.87 in 10.0 mi NNW 3.5 mph - N/A   Mostly Cloudy
10:55 AM 81.9 °F 89.5 °F 76.6 °F 84% 29.88 in 7.0 mi NNW 11.5 mph 21.9 mph 0.03 in Rain Heavy Rain
11:15 AM 80.6 °F 87.9 °F 78.3 °F 93% 29.87 in 10.0 mi ENE 3.5 mph - N/A   Mostly Cloudy
11:35 AM 83.5 °F 95.9 °F 79.9 °F 89% 29.87 in 10.0 mi NNW 6.9 mph - N/A   Mostly Cloudy
11:55 AM 84.4 °F 96.7 °F 79.0 °F 84% 29.86 in 10.0 mi NW 5.8 mph - N/A   Mostly Cloudy
12:15 PM 85.8 °F 97.3 °F 77.4 °F 76% 29.86 in 10.0 mi WNW 10.4 mph - N/A   Mostly Cloudy
12:35 PM 86.5 °F 97.4 °F 76.6 °F 72% 29.86 in 10.0 mi WNW 10.4 mph - N/A Rain Light Rain
12:55 PM 87.1 °F 97.3 °F 75.9 °F 69% 29.84 in 10.0 mi West 9.2 mph - N/A   Mostly Cloudy
1:15 PM 87.6 °F 98.2 °F 76.1 °F 68% 29.83 in 10.0 mi NNW 9.2 mph - N/A Thunderstorm Scattered Clouds
1:35 PM 88.0 °F 97.5 °F 75.0 °F 65% 29.83 in 10.0 mi NW 10.4 mph - N/A   Clear
1:55 PM 87.8 °F 97.6 °F 75.4 °F 66% 29.82 in 10.0 mi NW 10.4 mph - N/A   Scattered Clouds
2:15 PM 86.7 °F 96.4 °F 75.4 °F 69% 29.82 in 10.0 mi NW 12.7 mph - N/A   Scattered Clouds
2:35 PM 88.0 °F 98.0 °F 75.2 °F 66% 29.81 in 10.0 mi WNW 10.4 mph - N/A   Scattered Clouds
2:55 PM 86.0 °F 94.2 °F 74.5 °F 68% 29.81 in 10.0 mi WNW 10.4 mph - N/A   Scattered Clouds
3:15 PM 87.6 °F 96.7 °F 74.5 °F 65% 29.81 in 10.0 mi WNW 13.8 mph - N/A   Scattered Clouds
3:35 PM 88.0 °F 96.0 °F 73.6 °F 62% 29.81 in 10.0 mi NW 12.7 mph 17.3 mph N/A   Clear
3:55 PM 86.5 °F 93.8 °F 72.9 °F 64% 29.81 in 10.0 mi NW 17.3 mph 21.9 mph N/A   Clear
4:15 PM 86.4 °F 93.8 °F 73.4 °F 65% 29.81 in 10.0 mi WNW 15.0 mph 21.9 mph N/A   Clear
4:35 PM 85.1 °F 92.2 °F 73.4 °F 68% 29.81 in 10.0 mi WNW 13.8 mph - N/A   Clear
4:55 PM 83.3 °F 89.0 °F 72.7 °F 70% 29.81 in 10.0 mi WNW 13.8 mph - N/A   Clear
5:15 PM 81.9 °F 86.6 °F 72.1 °F 72% 29.82 in 10.0 mi WNW 17.3 mph - N/A   Clear
5:35 PM 80.6 °F 84.6 °F 71.6 °F 74% 29.82 in 10.0 mi WNW 12.7 mph - N/A   Clear
5:55 PM 79.3 °F - 70.9 °F 75% 29.83 in 10.0 mi NW 13.8 mph 19.6 mph N/A   Clear
6:15 PM 77.2 °F - 70.2 °F 79% 29.84 in 10.0 mi WNW 15.0 mph - N/A   Clear
6:35 PM 76.1 °F - 70.2 °F 82% 29.85 in 10.0 mi WNW 13.8 mph 17.3 mph N/A   Mostly Cloudy
6:55 PM 75.2 °F - 69.8 °F 83% 29.85 in 10.0 mi NW 12.7 mph 20.7 mph N/A   Overcast
7:15 PM 73.9 °F - 69.3 °F 85% 29.86 in 10.0 mi NW 12.7 mph - N/A   Overcast
7:35 PM 72.9 °F - 68.0 °F 85% 29.88 in 10.0 mi NW 12.7 mph 21.9 mph N/A   Mostly Cloudy
7:55 PM 72.3 °F - 68.0 °F 86% 29.89 in 10.0 mi NW 10.4 mph - N/A   Scattered Clouds
8:15 PM 72.0 °F - 68.0 °F 87% 29.90 in 10.0 mi WNW 8.1 mph - N/A   Clear
8:35 PM 71.8 °F - 68.0 °F 88% 29.91 in 10.0 mi NW 10.4 mph - N/A   Clear
8:55 PM 71.6 °F - 68.0 °F 88% 29.92 in 10.0 mi NW 9.2 mph - N/A   Clear
9:15 PM 71.6 °F - 67.5 °F 87% 29.92 in 10.0 mi NW 11.5 mph 17.3 mph N/A   Clear
9:35 PM 71.6 °F - 64.9 °F 79% 29.93 in 10.0 mi NW 12.7 mph 19.6 mph N/A   Clear
9:55 PM 70.9 °F - 62.8 °F 75% 29.94 in 10.0 mi WNW 13.8 mph 19.6 mph N/A   Clear
10:15 PM 70.2 °F - 61.3 °F 74% 29.95 in 10.0 mi NW 12.7 mph 20.7 mph N/A   Clear
10:35 PM 69.4 °F - 60.3 °F 73% 29.94 in 10.0 mi NW 13.8 mph 17.3 mph N/A   Clear
10:55 PM 69.4 °F - 59.2 °F 70% 29.94 in 10.0 mi NW 15.0 mph 19.6 mph N/A   Clear
11:15 PM 68.9 °F - 59.2 °F 71% 29.95 in 10.0 mi NW 11.5 mph - N/A   Clear
11:35 PM 68.0 °F - 59.2 °F 73% 29.94 in 10.0 mi NW 11.5 mph 16.1 mph N/A   Clear
11:55 PM 67.6 °F - 58.8 °F 73% 29.94 in 10.0 mi NW 11.5 mph - N/A   Scattered Clouds